Frankfurt, Germany

5:59 PM CEST on July 27, 2016 (GMT +0200)
Frankfurt

Weather History for 10637 - November, 2013

Change the Weather History Date:

Saturday, November 30, 2013

  Actual Average Record
Temperature  
Mean Temperature 38 °F -  
Max Temperature 41 °F 39 °F - ()
Min Temperature 36 °F 30 °F - ()
Degree Days  
Heating Degree Days 26    
Moisture  
Dew Point 37 °F    
Average Humidity 88    
Maximum Humidity 100    
Minimum Humidity 73    
Precipitation  
Precipitation 0.00 in - - ()
Sea Level Pressure  
Sea Level Pressure 30.11 in    
Wind  
Wind Speed 5 mph ()    
Max Wind Speed 9 mph    
Max Gust Speed 20 mph    
Visibility 8.0 miles    
Events Rain    
T = Trace of Precipitation, MM = Missing Value Source: Averaged Metar Reports

Daily Weather History Graph

Daily Weather History Graph

Search for Another Location

Airport or City:

Trip Planner

Search our weather history database for the weather conditions in past years. The results will help you decide how hot, cold, wet, or windy it might be!

Date:

Astronomy

Nov. 30, 2013 Rise Set
Actual Time 8:01 AM CET 4:27 PM CET
Civil Twilight 7:23 AM CET 5:04 PM CET
Nautical Twilight 6:43 AM CET 5:45 PM CET
Astronomical Twilight 6:04 AM CET 6:24 PM CET
Moon 4:39 AM CET (11/30) 2:53 PM CET (11/30)
Length of Visible Light 9h 40m
Length of Day
8h 25m
Waning Crescent, 9% of the Moon is Illuminated
Nov 30
Waning Crescent
Dec 3
New
Dec 9
First Quarter
Dec 17
Full
Dec 25
Last Quarter

Hourly Weather History & Observations

Time (CET) Temp. Windchill Dew Point Humidity Pressure Visibility Wind Dir Wind Speed Gust Speed Precip Events Conditions
12:00 AM 40 °F - 35 °F 75% 29.98 in 19 mi South 6.7 mph - -   Partly Cloudy
12:20 AM 39.2 °F - 35.6 °F 87% 29.95 in 6.2 mi South 2.3 mph - N/A   Mostly Cloudy
12:50 AM 41.0 °F 36.4 °F 35.6 °F 81% 29.95 in 6.2 mi West 6.9 mph - N/A   Mostly Cloudy
1:00 AM 41 °F - 35 °F 73% 29.98 in 19 mi West 6.7 mph - -   Partly Cloudy
1:20 AM 41.0 °F 37.1 °F 35.6 °F 81% 29.95 in 6.2 mi WSW 5.8 mph - N/A Rain Light Rain Showers
1:50 AM 39.2 °F 37.0 °F 35.6 °F 87% 29.95 in 6.2 mi Variable 3.5 mph - N/A   Mostly Cloudy
2:00 AM 39 °F - 35 °F 81% 29.96 in 16 mi SW 4.5 mph - - Rain Light Rain Showers
2:20 AM 39.2 °F 35.0 °F 35.6 °F 87% 29.95 in 6.2 mi SSW 5.8 mph - N/A   Mostly Cloudy
2:50 AM 39.2 °F 37.0 °F 35.6 °F 87% 29.95 in 6.2 mi South 3.5 mph - N/A   Mostly Cloudy
3:00 AM 38 °F - 35 °F 86% 29.97 in 16 mi South 2.2 mph - -   Mostly Cloudy
3:20 AM 39.2 °F 33.6 °F 35.6 °F 87% 29.95 in 6.2 mi SW 8.1 mph - N/A   Mostly Cloudy
3:50 AM 37.4 °F 31.4 °F 35.6 °F 93% 29.95 in 6.2 mi SW 8.1 mph - N/A   Mostly Cloudy
4:20 AM 39.2 °F 33.6 °F 35.6 °F 87% 29.95 in 6.2 mi SW 8.1 mph - N/A   Mostly Cloudy
4:50 AM 37.4 °F 32.1 °F 35.6 °F 93% 29.95 in 6.2 mi South 6.9 mph - N/A   Mostly Cloudy
5:00 AM 37 °F - 34 °F 85% 29.98 in 16 mi South 6.7 mph - -   Mostly Cloudy
5:20 AM 37.4 °F 33.8 °F 33.8 °F 87% 29.98 in 6.2 mi South 4.6 mph - N/A   Mostly Cloudy
5:50 AM 37.4 °F 32.8 °F 33.8 °F 87% 29.98 in 6.2 mi SSE 5.8 mph - N/A   Mostly Cloudy
6:00 AM 37 °F - 34 °F 84% 30.00 in 16 mi SSE 6.7 mph - -   Mostly Cloudy
6:20 AM 37.4 °F 32.1 °F 35.6 °F 93% 29.98 in 6.2 mi South 6.9 mph - N/A Rain Light Rain Showers
6:50 AM 37.4 °F 32.1 °F 35.6 °F 93% 30.01 in 6.2 mi SSW 6.9 mph - N/A Rain Light Rain Showers
7:00 AM 37 °F - 34 °F 84% 30.02 in 19 mi SSW 6.7 mph - - Rain Light Rain Showers
7:20 AM 37.4 °F 31.4 °F 35.6 °F 93% 30.01 in 6.2 mi South 8.1 mph 19.6 mph N/A   Mostly Cloudy
7:50 AM 37.4 °F 31.4 °F 33.8 °F 87% 30.01 in 6.2 mi SSW 8.1 mph - N/A   Mostly Cloudy
8:00 AM 37 °F - 34 °F 83% 30.04 in 12 mi SSW 8.9 mph - - Rain Light Rain Showers
8:20 AM 37.4 °F 32.1 °F 33.8 °F 87% 30.04 in 6.2 mi SSW 6.9 mph - N/A Rain Light Rain Showers
8:50 AM 37.4 °F 32.1 °F 33.8 °F 87% 30.04 in 6.2 mi SSW 6.9 mph - N/A   Mostly Cloudy
9:00 AM 37 °F - 34 °F 83% 30.07 in 22 mi SSW 6.7 mph - - Rain Light Rain Showers
9:20 AM 37.4 °F 32.8 °F 33.8 °F 87% 30.06 in 6.2 mi SSW 5.8 mph - N/A   Mostly Cloudy
9:50 AM 37.4 °F 32.1 °F 35.6 °F 93% 30.06 in 6.2 mi SSW 6.9 mph - N/A   Mostly Cloudy
10:20 AM 37.4 °F 32.8 °F 35.6 °F 93% 30.09 in 6.2 mi SSW 5.8 mph - N/A   Mostly Cloudy
10:50 AM 39.2 °F 35.0 °F 35.6 °F 87% 30.09 in 6.2 mi South 5.8 mph - N/A   Mostly Cloudy
11:00 AM 38 °F - 35 °F 82% 30.12 in 22 mi South 6.7 mph - -   Mostly Cloudy
11:20 AM 39.2 °F 34.2 °F 35.6 °F 87% 30.09 in 6.2 mi SSW 6.9 mph - N/A   Mostly Cloudy
11:50 AM 39.2 °F 34.2 °F 35.6 °F 87% 30.09 in 6.2 mi SSW 6.9 mph - N/A   Mostly Cloudy
12:00 PM 40 °F - 36 °F 79% 30.13 in 28 mi SSW 6.7 mph - -   Mostly Cloudy
12:20 PM 41.0 °F 35.8 °F 35.6 °F 81% 30.09 in 6.2 mi SSW 8.1 mph - N/A   Mostly Cloudy
12:50 PM 41.0 °F 35.8 °F 37.4 °F 87% 30.12 in 6.2 mi SSW 8.1 mph - N/A   Mostly Cloudy
1:00 PM 41 °F - 36 °F 76% 30.13 in 28 mi SSW 8.9 mph - -   Partly Cloudy
1:20 PM 41.0 °F 36.4 °F 37.4 °F 87% 30.12 in 6.2 mi SSW 6.9 mph - N/A   Mostly Cloudy
1:50 PM 41.0 °F 36.4 °F 37.4 °F 87% 30.12 in 6.2 mi SSW 6.9 mph - N/A   Mostly Cloudy
2:00 PM 41 °F - 37 °F 80% 30.14 in 28 mi SSW 6.7 mph - -   Mostly Cloudy
2:20 PM 41.0 °F 35.8 °F 37.4 °F 87% 30.12 in 6.2 mi SSW 8.1 mph - N/A   Mostly Cloudy
2:50 PM 41.0 °F 36.4 °F 37.4 °F 87% 30.12 in 6.2 mi SSW 6.9 mph - N/A Rain Light Rain Showers
3:00 PM 41 °F - 38 °F 83% 30.16 in 25 mi SSW 6.7 mph - - Rain Light Rain Showers
3:20 PM 41.0 °F 36.4 °F 39.2 °F 93% 30.15 in 6.2 mi SSW 6.9 mph - N/A   Mostly Cloudy
3:50 PM 41.0 °F 36.4 °F 39.2 °F 93% 30.18 in 6.2 mi SSW 6.9 mph - N/A   Mostly Cloudy
4:20 PM 41.0 °F 36.4 °F 39.2 °F 93% 30.18 in 6.2 mi SSW 6.9 mph - N/A   Mostly Cloudy
4:50 PM 41.0 °F 38.0 °F 39.2 °F 93% 30.21 in 6.2 mi South 4.6 mph - N/A   Mostly Cloudy
5:00 PM 41 °F - 38 °F 84% 30.22 in 11 mi South 4.5 mph - - Rain Light Rain Showers
5:20 PM 41.0 °F 37.1 °F 39.2 °F 93% 30.21 in 6.2 mi South 5.8 mph - N/A   Mostly Cloudy
5:50 PM 41.0 °F 37.1 °F 39.2 °F 93% 30.21 in 6.2 mi South 5.8 mph - N/A   Mostly Cloudy
6:00 PM 40 °F - 38 °F 88% 30.25 in 11 mi South 4.5 mph - - Rain Light Rain Showers
6:20 PM 41.0 °F 38.0 °F 39.2 °F 93% 30.24 in 6.2 mi South 4.6 mph - N/A   Mostly Cloudy
6:50 PM 41.0 °F 39.0 °F 39.2 °F 93% 30.24 in 6.2 mi Variable 3.5 mph - N/A   Mostly Cloudy
7:00 PM 41 °F - 38 °F 84% 30.27 in 11 mi SSW 4.5 mph - -   Partly Cloudy
7:20 PM 41.0 °F 39.0 °F 39.2 °F 93% 30.27 in 6.2 mi South 3.5 mph - N/A   Mostly Cloudy
7:50 PM 41.0 °F 39.0 °F 39.2 °F 93% 30.27 in 6.2 mi South 3.5 mph - N/A Rain Light Rain
8:00 PM 40 °F - 38 °F 88% 30.30 in 11 mi South 2.2 mph - - Rain Light Rain
8:20 PM 41.0 °F 39.0 °F 39.2 °F 93% 30.27 in 6.2 mi South 3.5 mph - N/A   Mostly Cloudy
8:50 PM 39.2 °F 37.0 °F 39.2 °F 100% 30.27 in 6.2 mi South 3.5 mph - N/A   Mostly Cloudy
9:00 PM 40 °F - 37 °F 87% 30.31 in 11 mi South 2.2 mph - - Rain Light Rain
9:20 PM 39.2 °F - 39.2 °F 100% 30.30 in 6.2 mi SSE 2.3 mph - N/A   Mostly Cloudy
9:50 PM 39.2 °F - 39.2 °F 100% 30.30 in 6.2 mi Variable 2.3 mph - N/A   Mostly Cloudy
10:20 PM 39.2 °F - 39.2 °F 100% 30.30 in 6.2 mi SSE 2.3 mph - N/A   Mostly Cloudy
10:50 PM 39.2 °F - 39.2 °F 100% 30.33 in 6.2 mi Variable 1.2 mph - N/A   Mostly Cloudy
11:00 PM 39 °F - 37 °F 89% 30.35 in 11 mi Calm Calm - -   Mostly Cloudy
11:20 PM 39.2 °F - 39.2 °F 100% 30.33 in 6.2 mi Calm Calm - N/A   Mostly Cloudy
11:50 PM 37.4 °F - 37.4 °F 100% 30.33 in 6.2 mi Calm Calm - N/A   Mostly Cloudy